Year,Month,Day,Hour,Minute,Value (Times are PST for windspeed in km/hr)
2008,10,07,00,00,8.00
2008,10,07,00,01,7.40
2008,10,07,00,02,11.70
2008,10,07,00,03,15.90
2008,10,07,00,04,15.60
2008,10,07,00,05,5.80
2008,10,07,00,06,10.60
2008,10,07,00,07,9.00
2008,10,07,00,08,6.30
2008,10,07,00,09,4.10
2008,10,07,00,10,5.40
2008,10,07,00,11,3.90
2008,10,07,00,12,3.10
2008,10,07,00,13,8.90
2008,10,07,00,14,4.70
2008,10,07,00,15,10.00
2008,10,07,00,16,11.00
2008,10,07,00,17,8.20
2008,10,07,00,18,11.50
2008,10,07,00,19,10.90
2008,10,07,00,20,11.00
2008,10,07,00,21,9.00
2008,10,07,00,22,20.60
2008,10,07,00,23,21.50
2008,10,07,00,24,21.60
2008,10,07,00,25,27.00
2008,10,07,00,26,18.30
2008,10,07,00,27,21.40
2008,10,07,00,28,24.50
2008,10,07,00,29,22.40
2008,10,07,00,30,22.60
2008,10,07,00,31,23.70
2008,10,07,00,32,29.00
2008,10,07,00,33,22.60
2008,10,07,00,34,27.80
2008,10,07,00,35,22.00
2008,10,07,00,36,36.80
2008,10,07,00,37,15.20
2008,10,07,00,38,21.70
2008,10,07,00,39,22.10
2008,10,07,00,40,31.90
2008,10,07,00,41,18.60
2008,10,07,00,42,17.50
2008,10,07,00,43,21.30
2008,10,07,00,44,27.10
2008,10,07,00,45,23.40
2008,10,07,00,46,23.40
2008,10,07,00,47,25.20
2008,10,07,00,48,14.00
2008,10,07,00,49,24.30
2008,10,07,00,50,22.30
2008,10,07,00,51,18.90
2008,10,07,00,52,27.40
2008,10,07,00,53,26.80
2008,10,07,00,54,24.20
2008,10,07,00,55,22.80
2008,10,07,00,56,23.60
2008,10,07,00,57,20.50
2008,10,07,00,58,26.70
2008,10,07,00,59,21.50
2008,10,07,01,00,25.10
2008,10,07,01,01,23.50
2008,10,07,01,02,18.40
2008,10,07,01,03,20.70
2008,10,07,01,04,28.60
2008,10,07,01,05,27.30
2008,10,07,01,06,23.60
2008,10,07,01,07,30.90
2008,10,07,01,08,25.90
2008,10,07,01,09,21.90
2008,10,07,01,10,16.10
2008,10,07,01,11,21.70
2008,10,07,01,12,24.60
2008,10,07,01,13,29.50
2008,10,07,01,14,23.10
2008,10,07,01,15,21.20
2008,10,07,01,16,22.90
2008,10,07,01,17,18.50
2008,10,07,01,18,22.40
2008,10,07,01,19,29.40
2008,10,07,01,20,21.60
2008,10,07,01,21,21.60
2008,10,07,01,22,23.20
2008,10,07,01,23,18.80
2008,10,07,01,24,20.60
2008,10,07,01,25,20.20
2008,10,07,01,26,24.10
2008,10,07,01,27,21.90
2008,10,07,01,28,14.60
2008,10,07,01,29,15.40
2008,10,07,01,30,16.10
2008,10,07,01,31,23.90
2008,10,07,01,32,21.00
2008,10,07,01,33,24.20
2008,10,07,01,34,20.80
2008,10,07,01,35,18.80
2008,10,07,01,36,19.80
2008,10,07,01,37,26.40
2008,10,07,01,38,25.80
2008,10,07,01,39,27.40
2008,10,07,01,40,21.10
2008,10,07,01,41,25.30
2008,10,07,01,42,26.60
2008,10,07,01,43,22.10
2008,10,07,01,44,28.70
2008,10,07,01,45,32.70
2008,10,07,01,46,38.50
2008,10,07,01,47,26.60
2008,10,07,01,48,25.80
2008,10,07,01,49,22.80
2008,10,07,01,50,30.80
2008,10,07,01,51,26.70
2008,10,07,01,52,40.80
2008,10,07,01,53,28.60
2008,10,07,01,54,32.40
2008,10,07,01,55,26.20
2008,10,07,01,56,30.00
2008,10,07,01,57,31.10
2008,10,07,01,58,33.60
2008,10,07,01,59,38.50
2008,10,07,02,00,26.00
2008,10,07,02,01,31.90
2008,10,07,02,02,31.50
2008,10,07,02,03,24.10
2008,10,07,02,04,35.40
2008,10,07,02,05,35.20
2008,10,07,02,06,27.10
2008,10,07,02,07,28.10
2008,10,07,02,08,29.50
2008,10,07,02,09,28.50
2008,10,07,02,10,15.10
2008,10,07,02,11,24.70
2008,10,07,02,12,25.70
2008,10,07,02,13,34.80
2008,10,07,02,14,41.80
2008,10,07,02,15,34.80
2008,10,07,02,16,25.00
2008,10,07,02,17,28.80
2008,10,07,02,18,41.60
2008,10,07,02,19,24.00
2008,10,07,02,20,31.80
2008,10,07,02,21,31.50
2008,10,07,02,22,32.00
2008,10,07,02,23,28.50
2008,10,07,02,24,24.60
2008,10,07,02,25,34.80
2008,10,07,02,26,29.60
2008,10,07,02,27,30.10
2008,10,07,02,28,22.10
2008,10,07,02,29,31.50
2008,10,07,02,30,36.50
2008,10,07,02,31,37.40
2008,10,07,02,32,35.30
2008,10,07,02,33,29.20
2008,10,07,02,34,22.90
2008,10,07,02,35,35.00
2008,10,07,02,36,30.50
2008,10,07,02,37,23.50
2008,10,07,02,38,27.20
2008,10,07,02,39,25.20
2008,10,07,02,40,26.60
2008,10,07,02,41,22.10
2008,10,07,02,42,30.40
2008,10,07,02,43,34.90
2008,10,07,02,44,29.30
2008,10,07,02,45,26.50
2008,10,07,02,46,26.20
2008,10,07,02,47,28.50
2008,10,07,02,48,30.00
2008,10,07,02,49,24.00
2008,10,07,02,50,25.70
2008,10,07,02,51,29.90
2008,10,07,02,52,26.50
2008,10,07,02,53,30.60
2008,10,07,02,54,34.90
2008,10,07,02,55,32.60
2008,10,07,02,56,24.20
2008,10,07,02,57,21.80
2008,10,07,02,58,29.00
2008,10,07,02,59,35.90
2008,10,07,03,00,32.40
2008,10,07,03,01,27.50
2008,10,07,03,02,38.90
2008,10,07,03,03,30.70
2008,10,07,03,04,30.60
2008,10,07,03,05,25.20
2008,10,07,03,06,33.10
2008,10,07,03,07,39.90
2008,10,07,03,08,33.50
2008,10,07,03,09,44.00
2008,10,07,03,10,36.40
2008,10,07,03,11,28.80
2008,10,07,03,12,33.90
2008,10,07,03,13,34.20
2008,10,07,03,14,24.10
2008,10,07,03,15,26.90
2008,10,07,03,16,35.10
2008,10,07,03,17,29.50
2008,10,07,03,18,21.90
2008,10,07,03,19,27.70
2008,10,07,03,20,24.90
2008,10,07,03,21,24.90
2008,10,07,03,22,29.90
2008,10,07,03,23,20.90
2008,10,07,03,24,31.70
2008,10,07,03,25,29.90
2008,10,07,03,26,30.00
2008,10,07,03,27,28.00
2008,10,07,03,28,32.50
2008,10,07,03,29,27.20
2008,10,07,03,30,20.10
2008,10,07,03,31,22.00
2008,10,07,03,32,25.10
2008,10,07,03,33,19.60
2008,10,07,03,34,27.40
2008,10,07,03,35,17.80
2008,10,07,03,36,24.80
2008,10,07,03,37,18.20
2008,10,07,03,38,30.00
2008,10,07,03,39,30.90
2008,10,07,03,40,20.30
2008,10,07,03,41,25.80
2008,10,07,03,42,27.20
2008,10,07,03,43,24.10
2008,10,07,03,44,34.60
2008,10,07,03,45,27.60
2008,10,07,03,46,27.10
2008,10,07,03,47,27.00
2008,10,07,03,48,25.70
2008,10,07,03,49,26.10
2008,10,07,03,50,33.80
2008,10,07,03,51,25.10
2008,10,07,03,52,24.30
2008,10,07,03,53,22.30
2008,10,07,03,54,16.90
2008,10,07,03,55,25.30
2008,10,07,03,56,23.80
2008,10,07,03,57,23.50
2008,10,07,03,58,25.20
2008,10,07,03,59,31.80
2008,10,07,04,00,20.90
2008,10,07,04,01,23.30
2008,10,07,04,02,30.40
2008,10,07,04,03,29.70
2008,10,07,04,04,28.70
2008,10,07,04,05,25.10
2008,10,07,04,06,31.50
2008,10,07,04,07,23.00
2008,10,07,04,08,18.40
2008,10,07,04,09,26.90
2008,10,07,04,10,27.00
2008,10,07,04,11,33.80
2008,10,07,04,12,27.10
2008,10,07,04,13,23.10
2008,10,07,04,14,27.30
2008,10,07,04,15,19.60
2008,10,07,04,16,31.80
2008,10,07,04,17,26.20
2008,10,07,04,18,29.50
2008,10,07,04,19,24.20
2008,10,07,04,20,28.60
2008,10,07,04,21,21.10
2008,10,07,04,22,28.30
2008,10,07,04,23,41.40
2008,10,07,04,24,29.40
2008,10,07,04,25,32.30
2008,10,07,04,26,31.00
2008,10,07,04,27,28.80
2008,10,07,04,28,34.70
2008,10,07,04,29,38.90
2008,10,07,04,30,25.90
2008,10,07,04,31,24.10
2008,10,07,04,32,32.00
2008,10,07,04,33,39.50
2008,10,07,04,34,32.70
2008,10,07,04,35,25.80
2008,10,07,04,36,33.70
2008,10,07,04,37,35.80
2008,10,07,04,38,26.90
2008,10,07,04,39,27.20
2008,10,07,04,40,29.40
2008,10,07,04,41,32.70
2008,10,07,04,42,22.70
2008,10,07,04,43,23.70
2008,10,07,04,44,22.90
2008,10,07,04,45,27.60
2008,10,07,04,46,31.80
2008,10,07,04,47,22.10
2008,10,07,04,48,30.90
2008,10,07,04,49,38.40
2008,10,07,04,50,26.90
2008,10,07,04,51,27.20
2008,10,07,04,52,35.50
2008,10,07,04,53,37.70
2008,10,07,04,54,30.80
2008,10,07,04,55,31.10
2008,10,07,04,56,29.00
2008,10,07,04,57,32.30
2008,10,07,04,58,32.50
2008,10,07,04,59,28.80
2008,10,07,05,00,20.10
2008,10,07,05,01,21.70
2008,10,07,05,02,31.30
2008,10,07,05,03,28.00
2008,10,07,05,04,28.30
2008,10,07,05,05,20.40
2008,10,07,05,06,21.10
2008,10,07,05,07,24.20
2008,10,07,05,08,30.50
2008,10,07,05,09,30.60
2008,10,07,05,10,26.00
2008,10,07,05,11,19.90
2008,10,07,05,12,26.40
2008,10,07,05,13,21.20
2008,10,07,05,14,22.00
2008,10,07,05,15,21.30
2008,10,07,05,16,30.10
2008,10,07,05,17,28.80
2008,10,07,05,18,25.40
2008,10,07,05,19,20.90
2008,10,07,05,20,24.00
2008,10,07,05,21,25.80
2008,10,07,05,22,29.00
2008,10,07,05,23,27.00
2008,10,07,05,24,26.50
2008,10,07,05,25,32.70
2008,10,07,05,26,31.60
2008,10,07,05,27,30.80
2008,10,07,05,28,34.70
2008,10,07,05,29,27.80
2008,10,07,05,30,23.50
2008,10,07,05,31,29.20
2008,10,07,05,32,23.30
2008,10,07,05,33,17.40
2008,10,07,05,34,24.10
2008,10,07,05,35,28.40
2008,10,07,05,36,28.60
2008,10,07,05,37,23.20
2008,10,07,05,38,26.40
2008,10,07,05,39,19.50
2008,10,07,05,40,25.70
2008,10,07,05,41,16.00
2008,10,07,05,42,22.40
2008,10,07,05,43,17.30
2008,10,07,05,44,24.20
2008,10,07,05,45,26.40
2008,10,07,05,46,24.70
2008,10,07,05,47,23.00
2008,10,07,05,48,25.40
2008,10,07,05,49,32.10
2008,10,07,05,50,20.50
2008,10,07,05,51,22.50
2008,10,07,05,52,22.00
2008,10,07,05,53,22.20
2008,10,07,05,54,18.40
2008,10,07,05,55,26.10
2008,10,07,05,56,24.90
2008,10,07,05,57,20.50
2008,10,07,05,58,23.90
2008,10,07,05,59,37.20
2008,10,07,06,00,40.80
2008,10,07,06,01,33.30
2008,10,07,06,02,22.80
2008,10,07,06,03,28.20
2008,10,07,06,04,26.00
2008,10,07,06,05,35.80
2008,10,07,06,06,25.70
2008,10,07,06,07,17.50
2008,10,07,06,08,30.70
2008,10,07,06,09,19.90
2008,10,07,06,10,23.40
2008,10,07,06,11,33.00
2008,10,07,06,12,18.20
2008,10,07,06,13,29.60
2008,10,07,06,14,20.10
2008,10,07,06,15,22.50
2008,10,07,06,16,16.90
2008,10,07,06,17,13.20
2008,10,07,06,18,27.40
2008,10,07,06,19,26.20
2008,10,07,06,20,26.30
2008,10,07,06,21,36.70
2008,10,07,06,22,27.10
2008,10,07,06,23,34.10
2008,10,07,06,24,23.10
2008,10,07,06,25,29.80
2008,10,07,06,26,32.50
2008,10,07,06,27,33.60
2008,10,07,06,28,26.00
2008,10,07,06,29,20.80
2008,10,07,06,30,39.20
2008,10,07,06,31,29.90
2008,10,07,06,32,22.60
2008,10,07,06,33,30.70
2008,10,07,06,34,24.00
2008,10,07,06,35,23.10
2008,10,07,06,36,30.90
2008,10,07,06,37,20.40
2008,10,07,06,38,26.20
2008,10,07,06,39,28.60
2008,10,07,06,40,28.30
2008,10,07,06,41,25.30
2008,10,07,06,42,27.20
2008,10,07,06,43,20.90
2008,10,07,06,44,27.00
2008,10,07,06,45,29.60
2008,10,07,06,46,24.30
2008,10,07,06,47,23.30
2008,10,07,06,48,27.40
2008,10,07,06,49,19.60
2008,10,07,06,50,22.70
2008,10,07,06,51,21.60
2008,10,07,06,52,26.20
2008,10,07,06,53,24.90
2008,10,07,06,54,19.70
2008,10,07,06,55,18.40
2008,10,07,06,56,23.30
2008,10,07,06,57,10.90
2008,10,07,06,58,26.70
2008,10,07,06,59,13.90
2008,10,07,07,00,17.40
2008,10,07,07,01,17.70
2008,10,07,07,02,22.00
2008,10,07,07,03,30.60
2008,10,07,07,04,20.80
2008,10,07,07,05,23.50
2008,10,07,07,06,26.20
2008,10,07,07,07,21.60
2008,10,07,07,08,20.10
2008,10,07,07,09,24.90
2008,10,07,07,10,20.70
2008,10,07,07,11,21.40
2008,10,07,07,12,20.20
2008,10,07,07,13,17.60
2008,10,07,07,14,18.10
2008,10,07,07,15,23.70
2008,10,07,07,16,18.80
2008,10,07,07,17,29.00
2008,10,07,07,18,21.90
2008,10,07,07,19,21.50
2008,10,07,07,20,18.10
2008,10,07,07,21,25.00
2008,10,07,07,22,21.80
2008,10,07,07,23,25.30
2008,10,07,07,24,14.30
2008,10,07,07,25,14.20
2008,10,07,07,26,17.90
2008,10,07,07,27,19.00
2008,10,07,07,28,19.20
2008,10,07,07,29,14.30
2008,10,07,07,30,15.20
2008,10,07,07,31,15.90
2008,10,07,07,32,21.20
2008,10,07,07,33,17.30
2008,10,07,07,34,20.50
2008,10,07,07,35,20.30
2008,10,07,07,36,14.70
2008,10,07,07,37,12.80
2008,10,07,07,38,12.30
2008,10,07,07,39,19.20
2008,10,07,07,40,22.40
2008,10,07,07,41,17.70
2008,10,07,07,42,13.30
2008,10,07,07,43,13.60
2008,10,07,07,44,22.50
2008,10,07,07,45,21.50
2008,10,07,07,46,15.20
2008,10,07,07,47,12.80
2008,10,07,07,48,14.90
2008,10,07,07,49,10.90
2008,10,07,07,50,19.90
2008,10,07,07,51,15.80
2008,10,07,07,52,13.10
2008,10,07,07,53,8.90
2008,10,07,07,54,11.90
2008,10,07,07,55,15.40
2008,10,07,07,56,12.50
2008,10,07,07,57,17.90
2008,10,07,07,58,11.10
2008,10,07,07,59,18.30
2008,10,07,08,00,11.60
2008,10,07,08,01,19.90
2008,10,07,08,02,22.00
2008,10,07,08,03,11.90
2008,10,07,08,04,14.40
2008,10,07,08,05,15.90
2008,10,07,08,06,14.30
2008,10,07,08,07,15.40
2008,10,07,08,08,12.50
2008,10,07,08,09,13.70
2008,10,07,08,10,12.10
2008,10,07,08,11,12.20
2008,10,07,08,12,12.80
2008,10,07,08,13,9.50
2008,10,07,08,14,14.20
2008,10,07,08,15,17.20
2008,10,07,08,16,15.00
2008,10,07,08,17,12.90
2008,10,07,08,18,10.10
2008,10,07,08,19,12.10
2008,10,07,08,20,11.60
2008,10,07,08,21,13.80
2008,10,07,08,22,12.90
2008,10,07,08,23,7.20
2008,10,07,08,24,13.20
2008,10,07,08,25,16.70
2008,10,07,08,26,10.60
2008,10,07,08,27,9.20
2008,10,07,08,28,9.10
2008,10,07,08,29,7.00
2008,10,07,08,30,8.00
2008,10,07,08,31,11.70
2008,10,07,08,32,11.90
2008,10,07,08,33,14.30
2008,10,07,08,34,18.20
2008,10,07,08,35,20.70
2008,10,07,08,36,17.40
2008,10,07,08,37,21.10
2008,10,07,08,38,26.70
2008,10,07,08,39,21.30
2008,10,07,08,40,18.00
2008,10,07,08,41,16.90
2008,10,07,08,42,16.70
2008,10,07,08,43,16.30
2008,10,07,08,44,22.90
2008,10,07,08,45,18.30
2008,10,07,08,46,16.10
2008,10,07,08,47,23.00
2008,10,07,08,48,19.90
2008,10,07,08,49,28.60
2008,10,07,08,50,22.30
2008,10,07,08,51,24.50
2008,10,07,08,52,28.90
2008,10,07,08,53,29.70
2008,10,07,08,54,28.80
2008,10,07,08,55,26.00
2008,10,07,08,56,29.20
2008,10,07,08,57,28.50
2008,10,07,08,58,22.40
2008,10,07,08,59,21.30
2008,10,07,09,00,30.10
2008,10,07,09,01,23.40
2008,10,07,09,02,24.50
2008,10,07,09,03,19.40
2008,10,07,09,04,26.60
2008,10,07,09,05,15.40
2008,10,07,09,06,20.80
2008,10,07,09,07,20.00
2008,10,07,09,08,20.10
2008,10,07,09,09,23.00
2008,10,07,09,10,16.10
2008,10,07,09,11,15.00
2008,10,07,09,12,15.80
2008,10,07,09,13,18.00
2008,10,07,09,14,24.40
2008,10,07,09,15,18.70
2008,10,07,09,16,19.20
2008,10,07,09,17,20.90
2008,10,07,09,18,24.40
2008,10,07,09,19,23.40
2008,10,07,09,20,17.30
2008,10,07,09,21,23.80
2008,10,07,09,22,25.80
2008,10,07,09,23,25.40
2008,10,07,09,24,18.30
2008,10,07,09,25,24.90
2008,10,07,09,26,23.90
2008,10,07,09,27,21.50
2008,10,07,09,28,24.00
2008,10,07,09,29,23.20
2008,10,07,09,30,30.10
2008,10,07,09,31,23.20
2008,10,07,09,32,25.70
2008,10,07,09,33,21.40
2008,10,07,09,34,30.60
2008,10,07,09,35,30.00
2008,10,07,09,36,19.00
2008,10,07,09,37,23.50
2008,10,07,09,38,21.10
2008,10,07,09,39,21.10
2008,10,07,09,40,23.30
2008,10,07,09,41,26.10
2008,10,07,09,42,13.30
2008,10,07,09,43,20.80
2008,10,07,09,44,15.80
2008,10,07,09,45,21.20
2008,10,07,09,46,33.70
2008,10,07,09,47,28.80
2008,10,07,09,48,18.20
2008,10,07,09,49,26.50
2008,10,07,09,50,22.00
2008,10,07,09,51,29.60
2008,10,07,09,52,28.40
2008,10,07,09,53,26.10
2008,10,07,09,54,18.30
2008,10,07,09,55,24.10
2008,10,07,09,56,25.80
2008,10,07,09,57,28.20
2008,10,07,09,58,35.10
2008,10,07,09,59,27.40
2008,10,07,10,00,26.10
2008,10,07,10,01,28.20
2008,10,07,10,02,25.00
2008,10,07,10,03,26.10
2008,10,07,10,04,23.30
2008,10,07,10,05,25.90
2008,10,07,10,06,24.60
2008,10,07,10,07,19.10
2008,10,07,10,08,22.30
2008,10,07,10,09,21.90
2008,10,07,10,10,25.20
2008,10,07,10,11,19.30
2008,10,07,10,12,28.90
2008,10,07,10,13,18.30
2008,10,07,10,14,21.00
2008,10,07,10,15,24.50
2008,10,07,10,16,26.00
2008,10,07,10,17,24.50
2008,10,07,10,18,27.10
2008,10,07,10,19,30.60
2008,10,07,10,20,23.40
2008,10,07,10,21,29.40
2008,10,07,10,22,29.40
2008,10,07,10,23,36.10
2008,10,07,10,24,17.10
2008,10,07,10,25,20.90
2008,10,07,10,26,22.40
2008,10,07,10,27,18.30
2008,10,07,10,28,25.00
2008,10,07,10,29,28.70
2008,10,07,10,30,29.70
2008,10,07,10,31,20.90
2008,10,07,10,32,23.20
2008,10,07,10,33,30.30
2008,10,07,10,34,27.20
2008,10,07,10,35,24.90
2008,10,07,10,36,28.70
2008,10,07,10,37,29.80
2008,10,07,10,38,24.10
2008,10,07,10,39,17.90
2008,10,07,10,40,24.70
2008,10,07,10,41,23.80
2008,10,07,10,42,22.50
2008,10,07,10,43,26.20
2008,10,07,10,44,38.20
2008,10,07,10,45,37.20
2008,10,07,10,46,32.70
2008,10,07,10,47,25.60
2008,10,07,10,48,27.00
2008,10,07,10,49,23.60
2008,10,07,10,50,23.70
2008,10,07,10,51,23.80
2008,10,07,10,52,35.70
2008,10,07,10,53,27.70
2008,10,07,10,54,29.90
2008,10,07,10,55,30.90
2008,10,07,10,56,27.30
2008,10,07,10,57,30.10
2008,10,07,10,58,27.60
2008,10,07,10,59,26.90
2008,10,07,11,00,36.40
2008,10,07,11,01,32.70
2008,10,07,11,02,28.90
2008,10,07,11,03,31.30
2008,10,07,11,04,31.70
2008,10,07,11,05,27.10
2008,10,07,11,06,30.30
2008,10,07,11,07,23.40
2008,10,07,11,08,31.10
2008,10,07,11,09,31.20
2008,10,07,11,10,40.10
2008,10,07,11,11,32.90
2008,10,07,11,12,22.80
2008,10,07,11,13,27.00
2008,10,07,11,14,25.90
2008,10,07,11,15,20.40
2008,10,07,11,16,34.00
2008,10,07,11,17,32.40
2008,10,07,11,18,42.40
2008,10,07,11,19,28.50
2008,10,07,11,20,24.60
2008,10,07,11,21,24.50
2008,10,07,11,22,24.10
2008,10,07,11,23,33.20
2008,10,07,11,24,25.80
2008,10,07,11,25,29.60
2008,10,07,11,26,21.20
2008,10,07,11,27,23.70
2008,10,07,11,28,34.00
2008,10,07,11,29,32.10
2008,10,07,11,30,24.50
2008,10,07,11,31,32.80
2008,10,07,11,32,30.50
2008,10,07,11,33,28.30
2008,10,07,11,34,26.20
2008,10,07,11,35,17.60
2008,10,07,11,36,27.20
2008,10,07,11,37,26.70
2008,10,07,11,38,30.40
2008,10,07,11,39,16.20
2008,10,07,11,40,24.00
2008,10,07,11,41,28.80
2008,10,07,11,42,22.30
2008,10,07,11,43,40.80
2008,10,07,11,44,26.90
2008,10,07,11,45,30.30
2008,10,07,11,46,25.60
2008,10,07,11,47,26.60
2008,10,07,11,48,21.10
2008,10,07,11,49,25.20
2008,10,07,11,50,24.90
2008,10,07,11,51,29.40
2008,10,07,11,52,20.60
2008,10,07,11,53,23.20
2008,10,07,11,54,21.40
2008,10,07,11,55,23.10
2008,10,07,11,56,19.40
2008,10,07,11,57,27.20
2008,10,07,11,58,27.30
2008,10,07,11,59,23.40
2008,10,07,12,00,28.30
2008,10,07,12,01,17.20
2008,10,07,12,02,21.30
2008,10,07,12,03,17.30
2008,10,07,12,04,24.50
2008,10,07,12,05,25.80
2008,10,07,12,06,24.40
2008,10,07,12,07,26.90
2008,10,07,12,08,27.50
2008,10,07,12,09,24.00
2008,10,07,12,10,25.70
2008,10,07,12,11,23.10
2008,10,07,12,12,16.30
2008,10,07,12,13,23.10
2008,10,07,12,14,17.10
2008,10,07,12,15,17.90
2008,10,07,12,16,24.40
2008,10,07,12,17,37.40
2008,10,07,12,18,29.10
2008,10,07,12,19,28.80
2008,10,07,12,20,29.20
2008,10,07,12,21,31.40
2008,10,07,12,22,30.60
2008,10,07,12,23,25.50
2008,10,07,12,24,37.60
2008,10,07,12,25,34.60
2008,10,07,12,26,22.80
2008,10,07,12,27,27.50
2008,10,07,12,28,32.70
2008,10,07,12,29,21.30
2008,10,07,12,30,35.60
2008,10,07,12,31,25.50
2008,10,07,12,32,32.00
2008,10,07,12,33,26.50
2008,10,07,12,34,36.20
2008,10,07,12,35,35.80
2008,10,07,12,36,22.40
2008,10,07,12,37,32.60
2008,10,07,12,38,32.60
2008,10,07,12,39,30.80
2008,10,07,12,40,23.30
2008,10,07,12,41,30.40
2008,10,07,12,42,28.20
2008,10,07,12,43,36.00
2008,10,07,12,44,30.60
2008,10,07,12,45,30.80
2008,10,07,12,46,26.50
2008,10,07,12,47,22.80
2008,10,07,12,48,23.40
2008,10,07,12,49,19.00
2008,10,07,12,50,32.30
2008,10,07,12,51,26.40
2008,10,07,12,52,25.60
2008,10,07,12,53,22.40
2008,10,07,12,54,17.90
2008,10,07,12,55,15.10
2008,10,07,12,56,23.60
2008,10,07,12,57,25.20
2008,10,07,12,58,30.30
2008,10,07,12,59,20.20
2008,10,07,13,00,17.90
2008,10,07,13,01,27.80
2008,10,07,13,02,25.30
2008,10,07,13,03,22.60
2008,10,07,13,04,24.20
2008,10,07,13,05,24.20
2008,10,07,13,06,23.30
2008,10,07,13,07,25.80
2008,10,07,13,08,28.50
2008,10,07,13,09,39.40
2008,10,07,13,10,35.60
2008,10,07,13,11,20.50
2008,10,07,13,12,25.90
2008,10,07,13,13,26.00
2008,10,07,13,14,21.50
2008,10,07,13,15,19.00
2008,10,07,13,16,25.30
2008,10,07,13,17,23.40
2008,10,07,13,18,26.90
2008,10,07,13,19,22.00
2008,10,07,13,20,20.90
2008,10,07,13,21,26.90
2008,10,07,13,22,26.70
2008,10,07,13,23,24.30
2008,10,07,13,24,25.30
2008,10,07,13,25,25.50
2008,10,07,13,26,32.80
2008,10,07,13,27,29.90
2008,10,07,13,28,18.00
2008,10,07,13,29,19.10
2008,10,07,13,30,19.40
2008,10,07,13,31,18.50
2008,10,07,13,32,20.70
2008,10,07,13,33,20.80
2008,10,07,13,34,19.60
2008,10,07,13,35,20.40
2008,10,07,13,36,17.60
2008,10,07,13,37,12.00
2008,10,07,13,38,11.60
2008,10,07,13,39,9.80
2008,10,07,13,40,17.10
2008,10,07,13,41,19.80
2008,10,07,13,42,16.90
2008,10,07,13,43,17.80
2008,10,07,13,44,11.30
2008,10,07,13,45,18.30
2008,10,07,13,46,21.80
2008,10,07,13,47,21.60
2008,10,07,13,48,26.10
2008,10,07,13,49,28.40
2008,10,07,13,50,23.50
2008,10,07,13,51,20.50
2008,10,07,13,52,16.00
2008,10,07,13,53,18.50
2008,10,07,13,54,11.90
2008,10,07,13,55,20.70
2008,10,07,13,56,15.40
2008,10,07,13,57,18.20
2008,10,07,13,58,17.10
2008,10,07,13,59,11.00
2008,10,07,14,00,9.70
2008,10,07,14,01,9.60
2008,10,07,14,02,10.40
2008,10,07,14,03,11.30
2008,10,07,14,04,24.70
2008,10,07,14,05,17.00
2008,10,07,14,06,25.60
2008,10,07,14,07,23.70
2008,10,07,14,08,28.60
2008,10,07,14,09,28.50
2008,10,07,14,10,22.30
2008,10,07,14,11,31.00
2008,10,07,14,12,31.10
2008,10,07,14,13,29.20
2008,10,07,14,14,27.00
2008,10,07,14,15,27.70
2008,10,07,14,16,20.40
2008,10,07,14,17,21.60
2008,10,07,14,18,23.90
2008,10,07,14,19,18.30
2008,10,07,14,20,20.80
2008,10,07,14,21,20.50
2008,10,07,14,22,12.50
2008,10,07,14,23,16.70
2008,10,07,14,24,15.20
2008,10,07,14,25,13.40
2008,10,07,14,26,16.70
2008,10,07,14,27,18.30
2008,10,07,14,28,14.10
2008,10,07,14,29,13.50
2008,10,07,14,30,17.50
2008,10,07,14,31,19.00
2008,10,07,14,32,19.80
2008,10,07,14,33,20.00
2008,10,07,14,34,14.80
2008,10,07,14,35,19.80
2008,10,07,14,36,20.80
2008,10,07,14,37,14.20
2008,10,07,14,38,13.10
2008,10,07,14,39,9.40
2008,10,07,14,40,16.70
2008,10,07,14,41,15.50
2008,10,07,14,42,28.60
2008,10,07,14,43,23.90
2008,10,07,14,44,15.50
2008,10,07,14,45,21.30
2008,10,07,14,46,16.40
2008,10,07,14,47,17.60
2008,10,07,14,48,14.70
2008,10,07,14,49,21.30
2008,10,07,14,50,19.10
2008,10,07,14,51,22.70
2008,10,07,14,52,26.20
2008,10,07,14,53,14.60
2008,10,07,14,54,23.40
2008,10,07,14,55,15.30
2008,10,07,14,56,25.40
2008,10,07,14,57,14.80
2008,10,07,14,58,17.60
2008,10,07,14,59,16.50
2008,10,07,15,00,23.20
2008,10,07,15,01,18.60
2008,10,07,15,02,21.20
2008,10,07,15,03,19.40
2008,10,07,15,04,20.80
2008,10,07,15,05,19.80
2008,10,07,15,06,12.50
2008,10,07,15,07,17.70
2008,10,07,15,08,16.90
2008,10,07,15,09,28.20
2008,10,07,15,10,13.10
2008,10,07,15,11,21.20
2008,10,07,15,12,10.30
2008,10,07,15,13,16.70
2008,10,07,15,14,14.70
2008,10,07,15,15,15.00
2008,10,07,15,16,14.70
2008,10,07,15,17,16.50
2008,10,07,15,18,13.90
2008,10,07,15,19,14.40
2008,10,07,15,20,20.50
2008,10,07,15,21,19.80
2008,10,07,15,22,19.10
2008,10,07,15,23,17.80
2008,10,07,15,24,25.20
2008,10,07,15,25,21.80
2008,10,07,15,26,24.10
2008,10,07,15,27,15.60
2008,10,07,15,28,15.50
2008,10,07,15,29,12.30
2008,10,07,15,30,15.10
2008,10,07,15,31,19.80
2008,10,07,15,32,20.20
2008,10,07,15,33,10.60
2008,10,07,15,34,9.90
2008,10,07,15,35,13.20
2008,10,07,15,36,13.80
2008,10,07,15,37,12.30
2008,10,07,15,38,14.70
2008,10,07,15,39,20.00
2008,10,07,15,40,10.20
2008,10,07,15,41,18.80
2008,10,07,15,42,20.70
2008,10,07,15,43,18.70
2008,10,07,15,44,21.90
2008,10,07,15,45,14.20
2008,10,07,15,46,26.80
2008,10,07,15,47,23.60
2008,10,07,15,48,19.50
2008,10,07,15,49,14.60
2008,10,07,15,50,14.90
2008,10,07,15,51,13.90
2008,10,07,15,52,9.30
2008,10,07,15,53,11.30
2008,10,07,15,54,6.90
2008,10,07,15,55,8.20
2008,10,07,15,56,7.70
2008,10,07,15,57,18.00
2008,10,07,15,58,13.10
2008,10,07,15,59,11.00
2008,10,07,16,00,8.30
2008,10,07,16,01,9.60
2008,10,07,16,02,9.50
2008,10,07,16,03,10.90
2008,10,07,16,04,11.30
2008,10,07,16,05,10.30
2008,10,07,16,06,15.80
2008,10,07,16,07,11.00
2008,10,07,16,08,14.90
2008,10,07,16,09,19.10
2008,10,07,16,10,13.20
2008,10,07,16,11,20.50
2008,10,07,16,12,16.30
2008,10,07,16,13,14.90
2008,10,07,16,14,17.20
2008,10,07,16,15,11.90
2008,10,07,16,16,22.70
2008,10,07,16,17,12.80
2008,10,07,16,18,19.00
2008,10,07,16,19,13.00
2008,10,07,16,20,15.40
2008,10,07,16,21,13.30
2008,10,07,16,22,15.90
2008,10,07,16,23,10.90
2008,10,07,16,24,9.50
2008,10,07,16,25,14.10
2008,10,07,16,26,11.70
2008,10,07,16,27,12.20
2008,10,07,16,28,13.60
2008,10,07,16,29,17.60
2008,10,07,16,30,14.80
2008,10,07,16,31,22.20
2008,10,07,16,32,20.60
2008,10,07,16,33,13.30
2008,10,07,16,34,9.40
2008,10,07,16,35,12.20
2008,10,07,16,36,10.90
2008,10,07,16,37,16.20
2008,10,07,16,38,7.90
2008,10,07,16,39,13.30
2008,10,07,16,40,9.60
2008,10,07,16,41,17.80
2008,10,07,16,42,20.00
2008,10,07,16,43,20.80
2008,10,07,16,44,15.00
2008,10,07,16,45,10.20
2008,10,07,16,46,16.30
2008,10,07,16,47,21.90
2008,10,07,16,48,18.30
2008,10,07,16,49,12.20
2008,10,07,16,50,17.60
2008,10,07,16,51,18.20
2008,10,07,16,52,16.40
2008,10,07,16,53,15.10
2008,10,07,16,54,15.90
2008,10,07,16,55,14.10
2008,10,07,16,56,16.60
2008,10,07,16,57,11.90
2008,10,07,16,58,10.10
2008,10,07,16,59,9.70
2008,10,07,17,00,14.00
2008,10,07,17,01,15.80
2008,10,07,17,02,23.40
2008,10,07,17,03,12.40
2008,10,07,17,04,10.00
2008,10,07,17,05,18.30
2008,10,07,17,06,16.10
2008,10,07,17,07,19.60
2008,10,07,17,08,17.10
2008,10,07,17,09,10.80
2008,10,07,17,10,8.70
2008,10,07,17,11,10.80
2008,10,07,17,12,16.90
2008,10,07,17,13,11.00
2008,10,07,17,14,13.80
2008,10,07,17,15,15.70
2008,10,07,17,16,11.40
2008,10,07,17,17,13.90
2008,10,07,17,18,16.10
2008,10,07,17,19,16.50
2008,10,07,17,20,18.00
2008,10,07,17,21,16.00